Regional Weather Roundup
Issued by NWS

Home | Current Version | Previous Version | Graphics & Text | Print | Product List | Glossary On
Versions: 1 2 3 4 5 6 7 8 9 10 11 12 13 14 15 16 17 18 19 20 21 22 23 24 25 26 27 28
000
ASUS45 KCYS 261610
RWRWY

WYOMING REGIONAL WEATHER ROUNDUP
NATIONAL WEATHER SERVICE CHEYENNE WY
1000 AM MDT FRI MAY 26 2017

NOTE:  "FAIR" INDICATES FEW OR NO CLOUDS BELOW 12,000 FEET
WITH NO SIGNIFICANT WEATHER AND/OR OBSTRUCTIONS TO VISIBILITY.

WYZ001-261700-
YELLOWSTONE NATIONAL PARK

CITY           SKY/WX    TMP DP  RH WIND       PRES   REMARKS
LK YELLOWSTONE   N/A     39  29  67 E6        29.94R WCI  35
W YELLOWSTONE  NOT AVBL

$$
WYZ002>013-054>058-071-098>099-261700-
NORTHERN WYOMING

CITY           SKY/WX    TMP DP  RH WIND       PRES   REMARKS
JACKSON        LGT RAIN  37  37 100 N14       29.89S WCI  29
CODY           FAIR      49  31  49 NE8       29.95S
GREYBULL       FAIR      57  29  34 W5        29.91R
WORLAND        FAIR      57  34  41 E3        29.91S
SHERIDAN       FAIR      56  38  50 NW10      29.94S
BUFFALO        CLOUDY    52  31  44 N5        29.95F
GILLETTE       FAIR      56  34  43 NW8       29.93F
HULETT         FAIR      55  34  44 NW10      29.95S
NEWCASTLE      FAIR      54  28  37 NW16G22   29.95F

$$
WYZ014>020-022>026-101>103-261700-
CENTRAL WYOMING

CITY           SKY/WX    TMP DP  RH WIND       PRES   REMARKS
BIG PINEY      LGT RAIN  41  38  89 S14       29.88F
PINEDALE       CLOUDY    45  36  70 SE17G24   29.88F
DUBOIS         LGT RAIN  36  32  87 SE16G24   29.92F WCI  26
LANDER         CLOUDY    44  37  76 N5        29.91F
RIVERTON       CLOUDY    45  39  79 NE8       29.93F
CASPER         PTSUNNY   50  35  56 E15       29.93F
DOUGLAS        FAIR      53  34  48 SE5       29.97S

$$
WYZ021-027>030-104>119-261700-
SOUTHERN WYOMING

CITY           SKY/WX    TMP DP  RH WIND       PRES   REMARKS
EVANSTON       LGT RAIN  43  40  89 NW7       29.89R
KEMMERER       LGT RAIN  37  36  93 E6        29.90R WCI  33
FORT BRIDGER   FAIR      49  39  69 N6        29.90R
ROCK SPRINGS   PTSUNNY   48  37  65 E8        29.87R
DIXON            N/A     57  40  54 NE8       29.90F
RAWLINS        LGT RAIN  42  38  85 NE10      29.94R
SARATOGA       CLOUDY    54  37  54 SE15G23   29.92
LARAMIE        FAIR      47  38  71 SE20      29.93F
CHEYENNE       PTSUNNY   49  36  61 S13       29.98F
TORRINGTON     FAIR      56  34  43 VRB3      29.95F
PINE BLUFFS    FAIR      54  37  54 E5        29.98F

$$




USA.gov is the U.S. government's official web portal to all federal, state and local government web resources and services.